Flag for Netherlands Weather past 2 weeks in Eindhoven, Netherlands

Now
39 °F

Fog.


Feels Like: 32 °F
Forecast: 35 / 39 °F
Wind: 10 mph from South

Location: Eindhoven Airport

Current Time: Jan 28, 2015 at 5:19:08 AM

Latest Report: Jan 28, 2015 at 4:25 AM


Visibility: 4 mi

Pressure: 30.01 "Hg

Humidity: 93%

Dew point: 37 °F

Location of EindhovenLocation

Historic Weather in Eindhoven — Graph

°F

Eindhoven temperature yesterday

Maximum temperature yesterday: 45 °F (at 1:25 PM)
Minimum temperature yesterday: 34 °F (at 6:25 AM)
Average temperature yesterday: 39 °F

Past Weeks' High & Low Weather Summary

 TemperatureHumidityPressure
High52 °F (Jan 13, 3:25 AM)100% (Jan 13, 1:25 PM)30.42 "Hg (Jan 13, 1:25 PM)
Low25 °F (Jan 22, 12:25 AM)65% (Jan 21, 2:55 PM)29.36 "Hg (Jan 15, 1:55 PM)
Average37 °F88%29.96 "Hg
* Reported Jan 13 3:25 AM — Jan 28 3:55 AM, Eindhoven, Weather by CustomWeather, © 2014

Note: Actual official high and low records may vary slightly from our data, if they occured in-between our weather recording intervals... More about our weather records

Advertising

Eindhoven weather history for previous 24 hours

 ConditionsComfort  
Time TempWeatherWind HumidityBarometerVisibility
3:55 AM
Jan 28
39 °FFog.9 mph93%30.04 "Hg3 mi
3:25 AM39 °FFog.8 mph93%30.04 "Hg3 mi
2:55 AM39 °FFog.8 mph93%30.09 "Hg2 mi
2:25 AM39 °FFog.8 mph93%30.09 "Hg3 mi
1:55 AM37 °FFog.8 mph100%30.12 "Hg3 mi
1:25 AM37 °FFog.9 mph100%30.12 "Hg3 mi
12:55 AM37 °FFog.9 mph93%30.12 "Hg4 mi
12:25 AM36 °FFog.9 mph100%30.15 "Hg4 mi
11:55 PM
Jan 27
34 °FFog.8 mph100%30.15 "Hg4 mi
11:25 PM36 °FFog.7 mph93%30.18 "Hg4 mi
10:55 PM36 °FFog.6 mph93%30.18 "Hg6 mi
10:25 PM34 °FFog.5 mph100%30.18 "Hg6 mi
9:55 PM36 °FPassing clouds.6 mph93%30.18 "HgN/A
9:25 PM37 °FPassing clouds.7 mph93%30.21 "HgN/A
8:55 PM37 °FPassing clouds.6 mph93%30.21 "HgN/A
8:25 PM39 °FOvercast.5 mph87%30.21 "HgN/A
7:59 PM39 °FOvercast.5 mph93%30.21 "HgN/A
7:25 PM41 °FOvercast.7 mph87%30.21 "HgN/A
7:00 PM41 °FMostly cloudy.7 mph87%30.21 "HgN/A
6:55 PM43 °FOvercast.8 mph81%30.21 "HgN/A
6:25 PM41 °FOvercast.7 mph87%30.21 "HgN/A
5:55 PM43 °FOvercast.8 mph81%30.21 "HgN/A
5:25 PM43 °FPartly cloudy.8 mph81%30.21 "HgN/A
4:55 PM43 °FBroken clouds.8 mph81%30.18 "HgN/A
4:25 PM43 °FOvercast.10 mph81%30.18 "HgN/A
3:55 PM45 °FOvercast.9 mph76%30.18 "HgN/A
3:25 PM45 °FBroken clouds.9 mph81%30.21 "HgN/A
2:55 PM45 °FMostly cloudy.9 mph76%30.21 "HgN/A
2:25 PM45 °FBroken clouds.10 mph81%30.21 "HgN/A
1:55 PM45 °FBroken clouds.8 mph81%30.21 "HgN/A
1:25 PM45 °FBroken clouds.9 mph81%30.21 "HgN/A
12:55 PM43 °FBroken clouds.9 mph87%30.24 "HgN/A
12:25 PM43 °FMore clouds than sun.12 mph87%30.21 "HgN/A
11:55 AM41 °FPartly sunny.9 mph93%30.24 "HgN/A
11:25 AM41 °FMostly cloudy.9 mph93%30.24 "HgN/A
10:55 AM41 °FOvercast.8 mph87%30.24 "HgN/A
10:25 AM39 °FPartly sunny.8 mph93%30.24 "HgN/A
10:00 AM37 °FBroken clouds.8 mph93%30.24 "HgN/A
9:55 AM37 °FBroken clouds.7 mph93%30.24 "HgN/A
9:25 AM36 °FBroken clouds.9 mph100%30.24 "HgN/A
9:03 AM36 °FPartly sunny.8 mph93%30.21 "HgN/A
8:59 AM36 °FBroken clouds.8 mph93%30.21 "HgN/A
8:25 AM36 °FChilly.9 mph93%30.21 "HgN/A
7:55 AM36 °FPassing clouds.8 mph93%30.21 "HgN/A
7:25 AM36 °FPartly cloudy.8 mph93%30.21 "HgN/A
7:01 AM34 °FPartly cloudy.7 mph93%30.21 "HgN/A
6:55 AM34 °FPassing clouds.6 mph93%30.21 "HgN/A
6:25 AM34 °FPassing clouds.6 mph93%30.21 "HgN/A
5:55 AM36 °FPassing clouds.7 mph87%30.21 "HgN/A
5:25 AM36 °FMostly cloudy.6 mph93%30.21 "HgN/A
Weather by CustomWeather, © 2014

See weather overviewHow to use our weather pages